| time (UTC) | temp C | wind direction | speed KPH | gust KPH | rain 1hr cm | rain 24hr cm | rain mn cm | humidity % | barometer mb |
| 20260502184539 | 13 | 360 | 0.0 | 3.2 | 0.00 | 0.05 | 0.00 | 100 | 1013.1 |
| 20260502183036 | 13 | 342 | 0.0 | 6.4 | 0.00 | 0.05 | 0.00 | 100 | 1013.2 |
| 20260502181534 | 14 | 360 | 0.0 | 4.8 | 0.00 | 0.05 | 0.00 | 100 | 1013.3 |
| 20260502163027 | 16 | 360 | 0.0 | 0.0 | 0.00 | 0.05 | 0.00 | 100 | 1013.9 |
| 20260502161526 | 16 | 360 | 0.0 | 3.2 | 0.00 | 0.05 | 0.00 | 100 | 1014.0 |
| 20260502151523 | 17 | 122 | 0.0 | 4.8 | 0.00 | 0.05 | 0.00 | 100 | 1014.5 |
| 20260502123102 | 15 | 176 | 0.0 | 3.2 | 0.00 | 0.05 | 0.00 | 100 | 1016.2 |
| 20260502121554 | 15 | 360 | 0.0 | 6.4 | 0.00 | 0.05 | 0.00 | 100 | 1016.4 |
| 20260502114548 | 13 | 360 | 0.0 | 6.4 | 0.00 | 0.05 | 0.00 | 100 | 1016.9 |
| 20260502113046 | 12 | 148 | 1.6 | 4.8 | 0.00 | 0.05 | 0.00 | 100 | 1016.8 |
| 20260502111550 | 13 | 115 | 1.6 | 9.7 | 0.00 | 0.05 | 0.00 | 100 | 1017.0 |
| 20260502110044 | 13 | 250 | 0.0 | 4.8 | 0.00 | 0.05 | 0.00 | 100 | 1016.9 |
| 20260502104540 | 12 | 360 | 0.0 | 1.6 | 0.00 | 0.05 | 0.00 | 100 | 1016.8 |
| 20260502103037 | 12 | 284 | 0.0 | 4.8 | 0.00 | 0.05 | 0.00 | 100 | 1017.2 |
| 20260502101535 | 11 | 276 | 0.0 | 1.6 | 0.00 | 0.05 | 0.00 | 100 | 1017.2 |
| 20260502091526 | 10 | 183 | 0.0 | 3.2 | 0.00 | 0.05 | 0.00 | 100 | 1017.5 |
| 20260502071520 | 9 | 108 | 0.0 | 1.6 | 0.00 | 0.05 | 0.00 | 100 | 1017.5 |
| 20260502070020 | 9 | 106 | 0.0 | 4.8 | 0.00 | 0.05 | 0.00 | 100 | 1017.5 |
| 20260502064520 | 9 | 109 | 0.0 | 1.6 | 0.00 | 0.05 | 0.00 | 100 | 1017.5 |
| 20260502063021 | 8 | 98 | 0.0 | 4.8 | 0.00 | 0.05 | 0.00 | 100 | 1017.5 |
| 20260502061517 | 8 | 120 | 0.0 | 3.2 | 0.00 | 0.05 | 0.00 | 100 | 1017.3 |
| 20260502060017 | 8 | 135 | 0.0 | 1.6 | 0.00 | 0.05 | 0.00 | 100 | 1017.4 |
| 20260502054516 | 8 | 200 | 0.0 | 0.0 | 0.00 | 0.05 | 0.00 | 100 | 1017.3 |
| 20260502053016 | 8 | 266 | 0.0 | 0.0 | 0.00 | 0.05 | 0.00 | 100 | 1017.4 |
| 20260502051514 | 7 | 288 | 0.0 | 3.2 | 0.00 | 0.05 | 0.00 | 100 | 1017.4 |
| 20260502050014 | 7 | 299 | 0.0 | 0.0 | 0.00 | 0.05 | 0.00 | 100 | 1017.5 |
| 20260502044514 | 7 | 298 | 0.0 | 0.0 | 0.00 | 0.05 | 0.00 | 100 | 1017.5 |
| 20260502043012 | 7 | 360 | 0.0 | 0.0 | 0.00 | 0.05 | 0.00 | 100 | 1017.5 |
| 20260502041516 | 7 | 360 | 0.0 | 0.0 | 0.00 | 0.05 | 0.00 | 100 | 1017.5 |
| 20260502040008 | 7 | 360 | 0.0 | 0.0 | 0.00 | 0.05 | 0.00 | 100 | 1017.5 |
| 20260502034508 | 7 | 360 | 0.0 | 0.0 | 0.00 | 0.05 | 0.00 | 100 | 1017.5 |
| 20260502033011 | 7 | 360 | 0.0 | 0.0 | 0.00 | 0.05 | 0.00 | 100 | 1017.5 |
| 20260502031506 | 7 | 360 | 0.0 | 0.0 | 0.00 | 0.05 | 0.00 | 100 | 1017.4 |
| 20260502030007 | 7 | 305 | 0.0 | 0.0 | 0.00 | 0.05 | 0.00 | 100 | 1017.5 |
| 20260502024503 | 7 | 306 | 0.0 | 0.0 | 0.00 | 0.05 | 0.00 | 100 | 1017.5 |
| 20260502023002 | 7 | 360 | 0.0 | 0.0 | 0.00 | 0.05 | 0.00 | 100 | 1017.6 |
| 20260502021559 | 7 | 307 | 0.0 | 0.0 | 0.00 | 0.05 | 0.00 | 100 | 1017.7 |
| 20260502020057 | 8 | 360 | 0.0 | 0.0 | 0.00 | 0.05 | 0.00 | 100 | 1017.8 |
| 20260502014555 | 8 | 360 | 0.0 | 0.0 | 0.00 | 0.05 | 0.00 | 100 | 1018.0 |
| 20260502013054 | 8 | 360 | 0.0 | 0.0 | 0.00 | 0.05 | 0.00 | 100 | 1018.1 |
| 20260502011550 | 8 | 360 | 0.0 | 0.0 | 0.00 | 0.05 | 0.00 | 100 | 1018.2 |
| 20260502010050 | 9 | 311 | 0.0 | 0.0 | 0.00 | 0.05 | 0.00 | 100 | 1018.5 |
| 20260502004545 | 9 | 360 | 0.0 | 0.0 | 0.00 | 0.05 | 0.00 | 100 | 1018.6 |
| 20260502003043 | 9 | 360 | 0.0 | 0.0 | 0.00 | 0.05 | 0.00 | 100 | 1018.8 |
| 20260502001542 | 9 | 360 | 0.0 | 0.0 | 0.00 | 0.05 | 0.00 | 100 | 1018.9 |
| 20260502000046 | 10 | 293 | 0.0 | 0.0 | 0.00 | 0.05 | 0.00 | 100 | 1018.8 |
| 20260501234540 | 10 | 360 | 0.0 | 0.0 | 0.00 | 0.05 | 0.00 | 100 | 1018.9 |
| 20260501233139 | 10 | 360 | 0.0 | 0.0 | 0.00 | 0.05 | 0.00 | 100 | 1018.9 |
| 20260501231546 | 10 | 360 | 0.0 | 0.0 | 0.00 | 0.05 | 0.00 | 100 | 1019.0 |
| 20260501230036 | 10 | 314 | 0.0 | 1.6 | 0.00 | 0.05 | 0.05 | 100 | 1019.0 |
| 20260501224545 | 10 | 335 | 0.0 | 3.2 | 0.00 | 0.05 | 0.05 | 100 | 1018.8 |
| 20260501223040 | 10 | 34 | 0.0 | 4.8 | 0.00 | 0.05 | 0.05 | 100 | 1018.9 |
| 20260501221538 | 10 | 213 | 0.0 | 1.6 | 0.00 | 0.05 | 0.05 | 100 | 1019.0 |
| 20260501220033 | 11 | 360 | 0.0 | 3.2 | 0.00 | 0.05 | 0.05 | 100 | 1019.0 |
| 20260501214534 | 11 | 213 | 0.0 | 1.6 | 0.00 | 0.05 | 0.05 | 100 | 1019.1 |
| 20260501213033 | 11 | 214 | 0.0 | 1.6 | 0.00 | 0.05 | 0.05 | 100 | 1019.1 |
| 20260501211532 | 11 | 214 | 0.0 | 1.6 | 0.03 | 0.05 | 0.05 | 100 | 1019.2 |
| 20260501210031 | 11 | 360 | 0.0 | 4.8 | 0.05 | 0.05 | 0.05 | 100 | 1019.1 |
| 20260501204532 | 11 | 251 | 0.0 | 8.0 | 0.05 | 0.05 | 0.05 | 100 | 1019.1 |
| 20260501203029 | 11 | 283 | 0.0 | 4.8 | 0.05 | 0.05 | 0.05 | 100 | 1019.1 |
| 20260501201529 | 11 | 360 | 0.0 | 3.2 | 0.03 | 0.03 | 0.03 | 100 | 1019.1 |
| 20260501200028 | 11 | 347 | 0.0 | 3.2 | 0.00 | 0.00 | 0.00 | 100 | 1019.2 |
| 20260501194529 | 12 | 293 | 0.0 | 0.0 | 0.00 | 0.00 | 0.00 | 100 | 1019.4 |
| 20260501193040 | 12 | 307 | 0.0 | 0.0 | 0.00 | 0.00 | 0.00 | 100 | 1019.3 |
| 20260501191528 | 12 | 211 | 0.0 | 3.2 | 0.00 | 0.00 | 0.00 | 100 | 1019.2 |
| 20260501190030 | 12 | 133 | 0.0 | 4.8 | 0.00 | 0.00 | 0.00 | 100 | 1019.0 |